Погода в Полтавке

Погода в Полтавке : погода сейчас, прогноз погоды и архив. Всё, что Вы хотите узнать о погоде в Полтавке!

Хотите узнать прогноз погоды в Полтавке? Тогда Вам сюда: Погода в Полтавке

Поиск расширенной информации на нашем сайте:

Другие новости

Новости СМИ2

Главная страница сайта

Новости сайта

02.10.2013

Напоминаем, что на нашем новом сайте вы можете получить высокодетализированные прогнозы погоды по пунктам России, СНГ и мира (включающие важные для авиации метеовеличины, такие как направление и скорость ветра, видимость, явления погоды, количество и форма облачности, нижняя и верхняя граница облачности), а также ознакомиться с разнообразными материалами по авиационной метеорологии и подборкой полезных ссылок на эту тему.

Сайт Метеоцентр.Азия посвящён разработке технологий оптимизации авиаметеорологического обслуживания, включая проектирование и перспективное создание нескольких автоматизированных авиаметеорологических систем:
- система выпуска высокодетальных прогностических карт явлений погоды для нижнего воздушного пространства по России и ближнему зарубежью;
- система верификации прогнозов TAF (выпускаемых синоптиками официальных АМСГ РФ и ближнего зарубежья) и AUTOTAF (выпускаемых сайтом Метеоцентр.Азия) - выявление ошибок, онлайн-сопоставление с фактической погодой METAR, автоматическое внесение коррективов в прогнозы при резком отклонении фактической погоды от прогноза, подсчёт оправдываемости прогнозов по элементам и в целом;
- система обработки, анализа и отображения авиаметеорологической информации для применения провайдерами метеорологической информации.

Рекомендуем: Вывеска светящаяся цена агентство наружной рекламы цены.

Погода в Полтавке - сегодня

Время (UTC), дата Ветер
(°,м/с) 
Видим.   Явления Облачность Т
(°С)
Тd
(°С)
f(%) Тe
(°С)
Pmin
(гПа)
dP
(гПа)
Po
(мм)
O2
(г/м3)
Тmin Tmax R s Состояние
почвы
06 26.05.17 020 (С) 20000 м    ясно 
+15.3 -3.6 27 +16  1025.1  0.6  758  289           
09 26.05.17 280 (З) 20000 м    ясно 
+18.3 -3.2 23 +20  1023.9  -1  757  286           
12 26.05.17 240 (ЮЗ) 20000 м    3/0 верхняя 
[Ci fib]
+20 -3 21 +20  1022.8  -1  756  284           
15 26.05.17 150 (ЮВ) 20000 м    ясно 
+14.8 +0.6 38 +15  1022.2  -0.9  755  289    +20       
18 26.05.17 160 (Ю) 10 км    ясно 
+12.2 +0.6 45 +12  1021.7  -0.6  755  291           
21 26.05.17 170 (Ю) 10 км    ясно 
+10.7 +1.3 52 +10  1020.9  -0.9  754  292           
00 27.05.17 160 (Ю) 20000 м    ясно 
+9.4 +1.5 58 +8  1020.1  -0.8  754  293           
03 27.05.17 170 (Ю) 20000 м    3/0 верхняя 
[Ci sp]
+16.9 +2.1 37 +17  1018.6  -1.1  753  285  +9.1         
15 27.05.17 130 (ЮВ) 7-11{12}  20000 м    10/5 600 м кучево-дожд., средняя, верхняя 
[Cb calv|Ac trans|Ci sp]
+21 +3.8 32 +21  1006.7  -2.7  744  278    +25.3       
21 27.05.17 150 (ЮВ) 6{12}  10 км    10/5 600 м кучево-дожд., средняя, верхняя 
[Cb calv|Ac trans|Ci sp]
+18.8 +1.3 31 +19  1001.5  -2.7  740  279           
00 28.05.17 160 (Ю) 20000 м  {ливн. осадки}  10/5 600 м кучево-дожд., средняя, верхняя 
[Cb calv|Ac trans|Ci sp]
+15.8 +8.5 62 +16  999.8  -1.8  739  280           
03 28.05.17 160 (Ю) 20000 м    8/4 600 м кучево-дожд., средняя, верхняя 
[Cb calv|Ac trans|Ci sp]
+21.2 +12.3 57 +26  998.1  -1.5  738  274  +15.3    0.0     
06 28.05.17 210 (ЮЗ) 20000 м    8/6 600 м кучево-дожд., средняя 
[Cb calv|Ac trans]
+22.9 +11.9 50 +27  995.8  -2.2  736  271           
15 28.05.17 260 (З) 3{13}  20000 м  в посл. час ливневой дождь  5/3 600 м кучево-дожд., верхняя 
[Cb calv|Ci sp]
+18.9 +12 64 +24  999.5  1.4  739  276    +24.7  0.3     
18 28.05.17 230 (ЮЗ) 20000 м  {ливн. осадки}  3/3 600 м 
[Sc]
+15.8 +10.7 72 +18  1001  1.4  740  280           
21 28.05.17 250 (З) 10 км    ясно 
+15.1 +10.7 75 +17  1001.7  0.6  740  281           
00 29.05.17 250 (З) 20000 м    3/0 средняя 
[Ac trans]
+12.7 +10.4 86 +16  1002.7  0.8  741  283           
03 29.05.17 200 (Ю) 20000 м    9/0 средняя, верхняя 
[Ac und|Ci sp]
+17.4 +12.3 72 +23  1002.2  -0.3  741  278  +12.6         
06 29.05.17 220 (ЮЗ) 20000 м    10/5 600 м кучево-дожд., средняя, верхняя 
[Cb calv|Ac trans|Ci sp]
+21.7 +10.5 49 +24  1001.3  -0.6  740  274           
09 29.05.17 260 (З) 2{15}  20000 м    10/4 600 м кучево-дожд., средняя, верхняя 
[Cb calv|Ac trans|Ci sp]
+21.1 +10.6 51 +23  999.7  -1.6  739  275           
12 29.05.17 210 (ЮЗ) 4000 м  слаб. ливневой дождь  10/6 600 м кучево-дожд., средняя, верхняя 
[Cb calv|Ac trans|Ci sp]
+15.8 +13.5 86 +23  998.4  -1.6  738  278           
15 29.05.17 210 (ЮЗ) 20000 м  {ливн. осадки}  9/8 600 м кучево-дожд., средняя, верхняя 
[Cb calv|Ac trans|Ci sp]
+16.9 +12 73 +21  996.9  -1.4  737  277    +23.2     
18 29.05.17 150 (ЮВ) 10 км  {ливн. осадки}  10/6 600 м кучево-дожд., средняя, верхняя 
[Cb calv|Ac trans|Ci sp]
+13.2 +12.5 96 +19  995.7  -1.4  736  280           
00 30.05.17 350 (С) 6-11{13}  4000 м  слаб. морось  10/10 210 м 
[St]
+7.2 +6.9 98 +5  997.2  1.7  737  288           
03 30.05.17 340 (С) 6-11{14}  4000 м  слаб. дождь{морось}  10/10 180 м 
[Ns]
+5.7 +4.5 92 +3  999.1  1.8  738  291  +5.6    0.7     
Время (UTC), дата Ветер
(°,м/с) 
Видим.   Явления Облачность Т
(°С)
Тd
(°С)
f(%) Тe
(°С)
Pmin
(гПа)
dP
(гПа)
Po
(мм)
O2
(г/м3)
Тmin Tmax R s Состояние
почвы

Для получения пояснительной информации подведите курсор к названию столбца.

ПОГОДА в Полтавке - архив

Всё, что Вы хотите узнать о погоде в Полтавке - удобно и подробно!

Выберите нужную дату (начиная с 1 января 2015* года) и нажмите кнопку "Найти".
Будут отображены архивные сводки погоды по пункту Полтавка, начиная с указанной даты.


Отображать данные в формате CSV (для использования в таблицах Excel)


Внимание! Наш архив погоды предназначен исключительно для личного некоммерческого использования в познавательных целях. Если Вам необходимы официальные справки о состоянии погоды (для производственных, юридических, коммерческих и т.п. целей), обращайтесь в органы Росгидромета.

*Примечание: данная дата относится к архиву по метеостанциям СССР (Россия, СНГ, Балтия).
Архив по метеостанциям Зарубежной Европы и Азии (кроме Китая) хранится 10 дней, по другим регионам земного шара (Китай, Африка, Америка, Австралия, Океания) - 1 день.

Полтавка - район местоположения метеостанции


Название, широта, долгота, высота метеостанции:
Полтавка 54.4°ш. 71.8°д. 125 м над ур. моря [Российская Федерация]

Дополнительная информация

В oтличие oт бoльшинства пoгoдных сайтoв мы публикуем пoдрoбную метеoинфoрмацию в детальнoм прoфессиoнальнoм фoрмате.

Характеристики температуры и влажнoсти вoздуха измеряются на высoте 2 м в тени вдали oт зданий и деревьев.
Скoрoсть ветра измеряется на высoте 10 м (на урoвне рoста челoвека скoрoсть ветра ниже в 1.5-2 раза). Если метеoстанция нахoдится в гoрoде или в лесу, тo скoрoсть ветра занижена на 2-4 м/с пo сравнению с oткрытым местoм. Скoрoсть ветра над акватoриями крупных рек и oзёр, а также на вершинах хoлмoв на 2-5 м/с выше, чем в oбычных услoвиях.
Атмoсфернoе давление в разных тoчках местнoсти мoжет значительнo oтличаться oт давления на метеoстанции, в зависимoсти oт услoвий рельефа (при пoдъёме на 10 м давление пoнижается примернo на 1 мм рт.ст.).